This is the latest recevied weather packets stored in our database for station/object KC0UFP. If no packets are shown the sender has not sent any weather packets the latest 10 day(s).
| Time | Temp. | Humidity | Pressure | Rain* | Wind** | Luminosity | Snow |
|---|---|---|---|---|---|---|---|
| 1778195754 | 18.89° C | 41% | 1015 hPa | 0 mm | - | 206 W/m² | - |
| 1778195452 | 19.44° C | 39% | 1014.9 hPa | 0 mm | - | 223 W/m² | - |
| 1778195148 | 19.44° C | 39% | 1015.2 hPa | 0 mm | - | 241 W/m² | - |
| 1778194844 | 19.44° C | 41% | 1015.1 hPa | 0 mm | - | 261 W/m² | - |
| 1778194539 | 19.44° C | 40% | 1015.1 hPa | 0 mm | - | 283 W/m² | - |
| 1778194236 | 18.89° C | 46% | 1015.3 hPa | 0 mm | - | 304 W/m² | - |
| 1778193932 | 18.89° C | 41% | 1015.1 hPa | 0 mm | - | 325 W/m² | - |
| 1778193629 | 20° C | 41% | 1015.4 hPa | 0 mm | - | 348 W/m² | - |
| 1778193325 | 20° C | 41% | 1015.2 hPa | 0 mm | - | 370 W/m² | - |
| 1778193022 | 20° C | 40% | 1015.4 hPa | 0 mm | - | 393 W/m² | - |
| 1778192719 | 20.56° C | 39% | 1015.4 hPa | 0 mm | - | 413 W/m² | - |
| 1778192415 | 20° C | 39% | 1015.3 hPa | 0 mm | - | 434 W/m² | - |
| 1778192112 | 20° C | 39% | 1015.4 hPa | 0 mm | - | 455 W/m² | - |
| 1778191809 | 18.89° C | 40% | 1015.4 hPa | 0 mm | - | 478 W/m² | - |
| 1778191506 | 18.89° C | 44% | 1015.4 hPa | 0 mm | - | 498 W/m² | - |
| 1778191203 | 18.89° C | 40% | 1015.3 hPa | 0 mm | - | 522 W/m² | - |
| 1778190899 | 20° C | 40% | 1015.4 hPa | 0 mm | - | 547 W/m² | - |
| 1778190597 | 20° C | 41% | 1015.3 hPa | 0 mm | - | 569 W/m² | - |
| 1778190294 | 20° C | 39% | 1015.5 hPa | 0 mm | - | 588 W/m² | - |
| 1778189989 | 20° C | 39% | 1015.6 hPa | 0 mm | - | 608 W/m² | - |
| 1778189687 | 19.44° C | 42% | 1015.4 hPa | 0 mm | - | 627 W/m² | - |
| 1778189383 | 20° C | 40% | 1015.6 hPa | 0 mm | - | 646 W/m² | - |
| 1778189079 | 20° C | 40% | 1015.4 hPa | 0 mm | - | 662 W/m² | - |
| 1778188776 | 19.44° C | 39% | 1015.2 hPa | 0 mm | - | 674 W/m² | - |
| 1778188473 | 19.44° C | 40% | 1015.7 hPa | 0 mm | - | 691 W/m² | - |
* Rain latest hour (hover to see other rain measurements)
** Current wind speed in m/s (hover to see current wind gust speed)